カタログに戻る

METEOSAT 8

MSG 1

運用中気象GEO
NORAD 27509·PAYLOAD·🇪🇺 EU

打ち上げ Aug 28, 2002 から Guiana Space Centre

Loading…

TLE

最新Source: Space-Track

元期: Sep 14, 2026, 13:56 UTC

1 27509U 02040B   26257.58099437 -.00000107  00000-0  00000-0 0  9995
2 27509  11.4293  40.5136 0013718  78.5501 113.3798  0.97904263 87816

AllMySatでMETEOSAT 8をリアルタイム追跡

Download on the App Store